Location: G�ndlingen
(48.0142°N, 7.6396°E)
Time: 08:33:02
(UTC+00:00)

Atlas Centaur 2 - Pass Details

Date: 05 July 2020
Orbit: 459 x 1310 km, 30.4° (Epoch: 04 August)

Event Time Altitude Azimuth Distance (km) Brightness Sun altitude
Rises 20:28:17 0° 232° (SW) 3,291 5.3 -8.0°
Reaches altitude 10° 20:31:36 10° 211° (SSW) 2,537 4.5 -8.3°
Maximum altitude 20:35:11 16° 175° (S) 2,308 4.0 -8.7°
Enters shadow 20:38:46 11° 143° (SE) 2,808 4.2 -9.1°
